Mankato, MN

3:44 PM CDT on October 20, 2017 (GMT -0500)
Mankato Regional

Weather History for KMKT - May, 2013

Change the Weather History Date:

Thursday, May 23, 2013

  Actual Average Record
Temperature  
Mean Temperature 53 °F -  
Max Temperature 62 °F 66 °F 89 °F (2012)
Min Temperature 44 °F 48 °F 37 °F (2001)
Degree Days  
Heating Degree Days 12    
Growing Degree Days 3 (Base 50)    
Moisture  
Dew Point 37 °F    
Average Humidity 55    
Maximum Humidity 82    
Minimum Humidity 30    
Precipitation  
Precipitation 0.00 in - - ()
Sea Level Pressure  
Sea Level Pressure 30.21 in    
Wind  
Wind Speed 13 mph (NE)    
Max Wind Speed 21 mph    
Max Gust Speed 26 mph    
Visibility 10 miles    
Events      
Averages and records for this station are not official NWS values.
T = Trace of Precipitation, MM = Missing Value Source: NWS Daily Summary

Daily Weather History Graph

Daily Weather History Graph

Search for Another Location

Airport or City:

Trip Planner

Search our weather history database for the weather conditions in past years. The results will help you decide how hot, cold, wet, or windy it might be!

Date:

Astronomy

May. 23, 2013 Rise Set
Actual Time 5:41 AM CDT 8:44 PM CDT
Civil Twilight 5:06 AM CDT 9:19 PM CDT
Nautical Twilight 4:22 AM CDT 10:03 PM CDT
Astronomical Twilight 3:29 AM CDT 10:57 PM CDT
Moon 7:15 PM CDT (5/23) 4:30 AM CDT (5/23)
Length of Visible Light 16h 12m
Length of Day
15h 03m
Waxing Gibbous, 97% of the Moon is Illuminated
May 23
Waxing Gibbous
May 24
Full
May 31
Last Quarter
Jun 8
New
Jun 16
First Quarter

Hourly Weather History & Observations

Time (CDT) Temp. Windchill Dew Point Humidity Pressure Visibility Wind Dir Wind Speed Gust Speed Precip Events Conditions
12:15 AM 51.8 °F - 46.4 °F 82% 29.98 in 10.0 mi NE 15.0 mph 23.0 mph N/A   Overcast
12:35 AM 51.8 °F - 44.6 °F 76% 29.98 in 10.0 mi NE 18.4 mph 25.3 mph N/A   Mostly Cloudy
12:55 AM 53.6 °F - 42.8 °F 67% 29.98 in 10.0 mi NE 19.6 mph 26.5 mph N/A   Overcast
1:15 AM 51.8 °F - 42.8 °F 71% 30.00 in 10.0 mi NNE 13.8 mph - N/A   Mostly Cloudy
1:35 AM 51.8 °F - 42.8 °F 71% 30.00 in 10.0 mi NNE 10.4 mph - N/A   Clear
1:55 AM 48.2 °F - 42.8 °F 82% 30.01 in 10.0 mi NNE 8.1 mph - N/A   Clear
2:15 AM 48.2 °F - 42.8 °F 82% 30.02 in 10.0 mi NNE 9.2 mph - N/A   Partly Cloudy
2:35 AM 48.2 °F - 41.0 °F 76% 30.03 in 10.0 mi North 9.2 mph - N/A   Clear
2:55 AM 48.2 °F - 41.0 °F 76% 30.04 in 10.0 mi North 10.4 mph - N/A   Clear
3:15 AM 48.2 °F - 41.0 °F 76% 30.06 in 10.0 mi North 11.5 mph - N/A   Clear
3:35 AM 46.4 °F 41.9 °F 41.0 °F 81% 30.07 in 10.0 mi North 9.2 mph - N/A   Clear
3:55 AM 46.4 °F 40.7 °F 41.0 °F 81% 30.08 in 10.0 mi NNE 12.7 mph - N/A   Clear
4:15 AM 46.4 °F 40.7 °F 39.2 °F 76% 30.08 in 10.0 mi NNE 12.7 mph - N/A   Clear
4:35 AM 46.4 °F 41.1 °F 39.2 °F 76% 30.10 in 10.0 mi NNE 11.5 mph - N/A   Clear
4:55 AM 44.6 °F 39.2 °F 39.2 °F 81% 30.11 in 10.0 mi NNE 10.4 mph - N/A   Clear
5:15 AM 44.6 °F 38.8 °F 39.2 °F 81% 30.12 in 10.0 mi NNE 11.5 mph - N/A   Clear
5:35 AM 44.6 °F 39.2 °F 39.2 °F 81% 30.13 in 10.0 mi NNE 10.4 mph 18.4 mph N/A   Clear
5:55 AM 44.6 °F 38.4 °F 39.2 °F 81% 30.14 in 10.0 mi NNE 12.7 mph - N/A   Clear
6:15 AM 44.6 °F 38.1 °F 39.2 °F 81% 30.15 in 10.0 mi NNE 13.8 mph - N/A   Clear
6:35 AM 44.6 °F 37.8 °F 39.2 °F 81% 30.16 in 10.0 mi NNE 15.0 mph - N/A   Clear
6:55 AM 44.6 °F 38.1 °F 39.2 °F 81% 30.17 in 10.0 mi NNE 13.8 mph 17.3 mph N/A   Clear
7:15 AM 46.4 °F 39.8 °F 37.4 °F 71% 30.18 in 10.0 mi NNE 16.1 mph 20.7 mph N/A   Clear
7:35 AM 46.4 °F 39.2 °F 37.4 °F 71% 30.18 in 10.0 mi NNE 18.4 mph - N/A   Clear
7:55 AM 46.4 °F 39.2 °F 37.4 °F 71% 30.20 in 10.0 mi NNE 18.4 mph 24.2 mph N/A   Clear
8:15 AM 46.4 °F 39.8 °F 37.4 °F 71% 30.20 in 10.0 mi NNE 16.1 mph - N/A   Clear
8:35 AM 48.2 °F - 37.4 °F 66% 30.21 in 10.0 mi NNE 18.4 mph - N/A   Clear
8:55 AM 48.2 °F - 37.4 °F 66% 30.22 in 10.0 mi NNE 17.3 mph - N/A   Clear
9:15 AM 48.2 °F - 39.2 °F 71% 30.23 in 10.0 mi NNE 18.4 mph - N/A   Clear
9:35 AM 50.0 °F - 37.4 °F 62% 30.23 in 10.0 mi NNE 17.3 mph - N/A   Clear
9:55 AM 51.8 °F - 37.4 °F 58% 30.23 in 10.0 mi NNE 20.7 mph - N/A   Clear
10:15 AM 51.8 °F - 37.4 °F 58% 30.24 in 10.0 mi NE 16.1 mph 20.7 mph N/A   Clear
10:35 AM 53.6 °F - 39.2 °F 58% 30.24 in 10.0 mi NNE 17.3 mph - N/A   Clear
10:55 AM 53.6 °F - 37.4 °F 54% 30.25 in 10.0 mi NNE 13.8 mph 23.0 mph N/A   Clear
11:15 AM 53.6 °F - 37.4 °F 54% 30.24 in 10.0 mi North 17.3 mph - N/A   Clear
11:35 AM 53.6 °F - 37.4 °F 54% 30.25 in 10.0 mi NNE 13.8 mph 19.6 mph N/A   Clear
11:55 AM 55.4 °F - 35.6 °F 47% 30.26 in 10.0 mi NNE 17.3 mph 21.9 mph N/A   Clear
12:15 PM 55.4 °F - 35.6 °F 47% 30.25 in 10.0 mi NNE 16.1 mph - N/A   Clear
12:35 PM 57.2 °F - 35.6 °F 44% 30.26 in 10.0 mi NNE 16.1 mph 19.6 mph N/A   Clear
12:55 PM 57.2 °F - 33.8 °F 41% 30.26 in 10.0 mi NE 16.1 mph 21.9 mph N/A   Clear
1:15 PM 57.2 °F - 35.6 °F 44% 30.26 in 10.0 mi NNE 15.0 mph 20.7 mph N/A   Clear
1:35 PM 57.2 °F - 35.6 °F 44% 30.26 in 10.0 mi NNE 15.0 mph 24.2 mph N/A   Clear
1:55 PM 59.0 °F - 35.6 °F 42% 30.26 in 10.0 mi NNE 13.8 mph - N/A   Clear
2:15 PM 59.0 °F - 33.8 °F 39% 30.26 in 10.0 mi NE 17.3 mph 21.9 mph N/A   Clear
2:35 PM 59.0 °F - 33.8 °F 39% 30.26 in 10.0 mi NE 16.1 mph - N/A   Clear
2:55 PM 60.8 °F - 33.8 °F 36% 30.26 in 10.0 mi NE 11.5 mph 17.3 mph N/A   Clear
3:15 PM 60.8 °F - 30.2 °F 31% 30.26 in 10.0 mi NE 12.7 mph - N/A   Clear
3:35 PM 60.8 °F - 32.0 °F 34% 30.27 in 10.0 mi NE 11.5 mph 20.7 mph N/A   Clear
3:55 PM 60.8 °F - 32.0 °F 34% 30.26 in 10.0 mi ENE 13.8 mph - N/A   Clear
4:15 PM 62.6 °F - 32.0 °F 32% 30.26 in 10.0 mi ENE 11.5 mph 18.4 mph N/A   Clear
4:35 PM 62.6 °F - 32.0 °F 32% 30.26 in 10.0 mi ENE 11.5 mph 17.3 mph N/A   Clear
4:55 PM 62.6 °F - 32.0 °F 32% 30.27 in 10.0 mi ENE 11.5 mph 17.3 mph N/A   Clear
5:15 PM 62.6 °F - 30.2 °F 30% 30.26 in 10.0 mi ENE 12.7 mph - N/A   Clear
5:35 PM 62.6 °F - 32.0 °F 32% 30.27 in 10.0 mi ENE 10.4 mph - N/A   Clear
5:55 PM 62.6 °F - 32.0 °F 32% 30.27 in 10.0 mi NE 13.8 mph - N/A   Clear
6:15 PM 62.6 °F - 32.0 °F 32% 30.27 in 10.0 mi NE 11.5 mph - N/A   Clear
6:35 PM 62.6 °F - 33.8 °F 34% 30.27 in 10.0 mi ENE 8.1 mph - N/A   Clear
6:55 PM 62.6 °F - 32.0 °F 32% 30.27 in 10.0 mi ENE 9.2 mph - N/A   Clear
7:15 PM 62.6 °F - 33.8 °F 34% 30.28 in 10.0 mi ENE 9.2 mph - N/A   Clear
7:35 PM 60.8 °F - 32.0 °F 34% 30.27 in 10.0 mi ENE 9.2 mph - N/A   Clear
7:55 PM 60.8 °F - 32.0 °F 34% 30.28 in 10.0 mi ENE 6.9 mph - N/A   Clear
8:15 PM 60.8 °F - 33.8 °F 36% 30.28 in 10.0 mi East 8.1 mph - N/A   Clear
8:35 PM 57.2 °F - 33.8 °F 41% 30.28 in 10.0 mi East 6.9 mph - N/A   Clear
8:55 PM 57.2 °F - 33.8 °F 41% 30.28 in 10.0 mi East 6.9 mph - N/A   Clear
9:15 PM 57.2 °F - 33.8 °F 41% 30.29 in 10.0 mi East 4.6 mph - N/A   Clear
9:35 PM 55.4 °F - 33.8 °F 44% 30.30 in 10.0 mi Calm Calm - N/A   Clear
9:55 PM 55.4 °F - 33.8 °F 44% 30.30 in 10.0 mi Calm Calm - N/A   Clear
10:15 PM 55.4 °F - 33.8 °F 44% 30.31 in 10.0 mi ENE 5.8 mph - N/A   Clear
10:35 PM 53.6 °F - 33.8 °F 47% 30.32 in 10.0 mi ESE 5.8 mph - N/A   Clear
10:55 PM 53.6 °F - 35.6 °F 51% 30.32 in 10.0 mi East 8.1 mph - N/A   Clear
11:15 PM 53.6 °F - 35.6 °F 51% 30.32 in 10.0 mi East 6.9 mph - N/A   Clear
11:35 PM 51.8 °F - 33.8 °F 50% 30.33 in 10.0 mi East 6.9 mph - N/A   Clear
11:55 PM 51.8 °F - 35.6 °F 54% 30.33 in 10.0 mi East 9.2 mph - N/A   Clear